Location: Newark
(44.2003°N, 3.2583°E)
Time: 21:22:25
(UTC+00:00)

Envisat - Pass Details

Date: 27 September 2019
Orbit: 764 x 766 km, 98.1° (Epoch: 15 October)

Event Time Altitude Azimuth Distance (km) Brightness Sun altitude
Rises 18:22:19 0° 182° (S) 3,218 6.2 -9.1°
Reaches altitude 10° 18:24:42 10° 189° (S) 2,296 5.5 -9.6°
Maximum altitude 18:29:32 45° 262° (W) 1,035 4.3 -10.4°
Drops below altitude 10° 18:34:25 10° 335° (NNW) 2,312 6.0 -11.3°
Sets 18:36:50 0° 341° (NNW) 3,242 6.6 -11.7°
